| time (UTC) | temp F | wind direction | speed MPH | gust MPH | rain 1hr in | rain 24hr in | rain mn in | humidity % | barometer mb |
| 20260505124502 | 46 | 227 | 1.0 | 2.0 | 0.00 | 0.00 | 0.00 | 61 | 1009.9 |
| 20260505120003 | 43 | 288 | 0.0 | 0.0 | 0.00 | 0.00 | 0.00 | 61 | 1009.7 |
| 20260505114503 | 43 | 288 | 0.0 | 0.0 | 0.00 | 0.00 | 0.00 | 61 | 1009.4 |
| 20260505113003 | 43 | 288 | 0.0 | 0.0 | 0.00 | 0.00 | 0.00 | 60 | 1009.0 |
| 20260505111503 | 43 | 288 | 0.0 | 0.0 | 0.00 | 0.00 | 0.00 | 59 | 1008.6 |
| 20260505100002 | 45 | 345 | 0.0 | 0.0 | 0.00 | 0.00 | 0.00 | 55 | 1007.1 |
| 20260505093003 | 46 | 312 | 0.0 | 0.0 | 0.00 | 0.00 | 0.00 | 52 | 1007.6 |
| 20260505091503 | 47 | 312 | 0.0 | 1.0 | 0.00 | 0.00 | 0.00 | 50 | 1007.4 |
| 20260505090003 | 47 | 315 | 0.0 | 2.0 | 0.00 | 0.00 | 0.00 | 49 | 1007.0 |
| 20260505084503 | 47 | 271 | 0.0 | 5.0 | 0.00 | 0.00 | 0.00 | 48 | 1007.1 |
| 20260505083003 | 48 | 328 | 3.0 | 9.0 | 0.00 | 0.00 | 0.00 | 47 | 1006.3 |
| 20260505080002 | 49 | 337 | 5.0 | 13.0 | 0.00 | 0.00 | 0.00 | 45 | 1006.3 |
| 20260505071503 | 49 | 338 | 12.0 | 17.0 | 0.00 | 0.00 | 0.00 | 45 | 1006.1 |
| 20260505061503 | 51 | 327 | 9.0 | 20.0 | 0.00 | 0.00 | 0.00 | 45 | 1005.4 |
| 20260505060003 | 51 | 333 | 10.0 | 20.0 | 0.00 | 0.00 | 0.00 | 44 | 1005.6 |
| 20260505054502 | 52 | 331 | 8.0 | 21.0 | 0.00 | 0.00 | 0.00 | 44 | 1005.7 |
| 20260505053003 | 52 | 322 | 10.0 | 21.0 | 0.00 | 0.00 | 0.00 | 43 | 1005.7 |
| 20260505051503 | 52 | 324 | 12.0 | 25.0 | 0.00 | 0.00 | 0.00 | 42 | 1005.0 |
| 20260505041503 | 54 | 331 | 10.0 | 23.0 | 0.00 | 0.00 | 0.00 | 45 | 1004.3 |
| 20260505040004 | 54 | 333 | 14.0 | 20.0 | 0.00 | 0.00 | 0.00 | 44 | 1004.4 |
| 20260505034502 | 56 | 344 | 14.0 | 26.0 | 0.00 | 0.00 | 0.00 | 43 | 1003.6 |
| 20260505033002 | 57 | 329 | 15.0 | 26.0 | 0.00 | 0.00 | 0.00 | 42 | 1003.3 |
| 20260505030003 | 58 | 332 | 12.0 | 20.0 | 0.00 | 0.00 | 0.00 | 38 | 1003.3 |
| 20260505024503 | 58 | 302 | 9.0 | 16.0 | 0.00 | 0.00 | 0.00 | 38 | 1003.1 |
| 20260505021503 | 58 | 320 | 7.0 | 20.0 | 0.00 | 0.00 | 0.00 | 38 | 1002.2 |
| 20260505020003 | 59 | 316 | 9.0 | 20.0 | 0.00 | 0.00 | 0.00 | 37 | 1002.0 |
| 20260505014502 | 59 | 328 | 9.0 | 16.0 | 0.00 | 0.00 | 0.00 | 37 | 1001.5 |
| 20260505013002 | 60 | 333 | 9.0 | 20.0 | 0.00 | 0.00 | 0.00 | 35 | 1001.0 |
| 20260505011503 | 61 | 337 | 12.0 | 26.0 | 0.00 | 0.00 | 0.00 | 34 | 1000.7 |
| 20260505010003 | 62 | 338 | 9.0 | 21.0 | 0.00 | 0.00 | 0.00 | 34 | 1000.5 |
| 20260505004503 | 63 | 330 | 9.0 | 25.0 | 0.00 | 0.00 | 0.00 | 32 | 1000.2 |
| 20260505003003 | 64 | 337 | 14.0 | 26.0 | 0.00 | 0.00 | 0.00 | 30 | 1000.2 |
| 20260505001503 | 66 | 329 | 16.0 | 26.0 | 0.00 | 0.00 | 0.00 | 30 | 1000.0 |
| 20260505000003 | 67 | 337 | 16.0 | 26.0 | 0.00 | 0.00 | 0.00 | 30 | 999.9 |
| 20260504233003 | 69 | 330 | 15.0 | 29.0 | 0.00 | 0.00 | 0.00 | 30 | 999.3 |
| 20260504231503 | 70 | 339 | 13.0 | 26.0 | 0.00 | 0.00 | 0.00 | 30 | 999.0 |
| 20260504230002 | 72 | 339 | 14.0 | 25.0 | 0.00 | 0.00 | 0.00 | 29 | 998.8 |
| 20260504224503 | 73 | 336 | 14.0 | 26.0 | 0.00 | 0.00 | 0.00 | 29 | 998.5 |
| 20260504223002 | 74 | 305 | 12.0 | 22.0 | 0.00 | 0.00 | 0.00 | 29 | 998.0 |
| 20260504214503 | 75 | 311 | 13.0 | 25.0 | 0.00 | 0.00 | 0.00 | 31 | 997.4 |
| 20260504213002 | 76 | 312 | 11.0 | 24.0 | 0.00 | 0.00 | 0.00 | 32 | 997.2 |
| 20260504211503 | 78 | 322 | 13.0 | 23.0 | 0.00 | 0.00 | 0.00 | 33 | 996.9 |
| 20260504210004 | 79 | 334 | 12.0 | 21.0 | 0.00 | 0.00 | 0.00 | 33 | 996.9 |
| 20260504204503 | 79 | 308 | 10.0 | 22.0 | 0.00 | 0.00 | 0.00 | 31 | 996.8 |
| 20260504203003 | 80 | 254 | 12.0 | 23.0 | 0.00 | 0.00 | 0.00 | 27 | 996.7 |
| 20260504201504 | 80 | 257 | 14.0 | 29.0 | 0.00 | 0.00 | 0.00 | 27 | 996.8 |
| 20260504200004 | 80 | 253 | 12.0 | 23.0 | 0.00 | 0.00 | 0.00 | 29 | 997.0 |
| 20260504194503 | 80 | 247 | 10.0 | 23.0 | 0.00 | 0.00 | 0.00 | 29 | 997.2 |
| 20260504193003 | 79 | 276 | 10.0 | 21.0 | 0.00 | 0.00 | 0.00 | 30 | 997.3 |
| 20260504191504 | 79 | 268 | 13.0 | 25.0 | 0.00 | 0.00 | 0.00 | 30 | 997.3 |
| 20260504190003 | 78 | 284 | 9.0 | 22.0 | 0.00 | 0.00 | 0.00 | 31 | 997.5 |
| 20260504184503 | 79 | 283 | 14.0 | 24.0 | 0.00 | 0.00 | 0.00 | 30 | 997.5 |
| 20260504183003 | 78 | 265 | 12.0 | 22.0 | 0.00 | 0.00 | 0.00 | 31 | 997.6 |
| 20260504180003 | 78 | 275 | 13.0 | 31.0 | 0.00 | 0.00 | 0.00 | 32 | 997.6 |
| 20260504174503 | 78 | 267 | 11.0 | 26.0 | 0.00 | 0.00 | 0.00 | 30 | 997.6 |
| 20260504171504 | 77 | 217 | 12.0 | 25.0 | 0.00 | 0.00 | 0.00 | 32 | 997.9 |